Regional Weather Roundup
Issued by NWS

Home | Current Version | Previous Version | Text Only | Print | Product List | Glossary On
Versions: 1 2 3 4 5 6 7 8 9 10 11 12 13 14 15 16 17 18 19 20 21 22 23 24 25 26 27 28 29 30 31 32 33 34 35 36 37 38 39 40 41 42 43 44 45 46 47 48 49 50
000
ASUS46 KPQR 191710
RWROR

OREGON REGIONAL WEATHER ROUNDUP
NATIONAL WEATHER SERVICE PORTLAND OR
1000 AM PDT FRI SEP 19 2014

NOTE: "FAIR" INDICATES FEW OR NO CLOUDS BELOW 12,000 FEET WITH
NO SIGNIFICANT WEATHER AND/OR OBSTRUCTIONS TO VISIBILITY.

ORZ001>013-191800-
NORTHWEST OREGON


CITY           SKY/WX    TMP DP  RH WIND       PRES   REMARKS
ASTORIA        MOSUNNY   64  58  80 SW6       30.10R
NEWPORT        SUNNY     63  59  88 NE3       30.13R
PORTLAND       MOSUNNY   68  59  73 CALM      30.10R
VANCOUVER WA   SUNNY     67  58  72 SW6       30.10R
SCAPPOOSE      SUNNY     68  58  70 CALM      30.10R
HILLSBORO      MOSUNNY   65  57  75 CALM      30.10R
AURORA         SUNNY     68  58  70 N3        30.11R
MCMINNVILLE    SUNNY     66  57  72 CALM      30.11R
SALEM          SUNNY     67  56  67 CALM      30.09R
CORVALLIS      SUNNY     64  55  72 CALM      30.11S
EUGENE         MOSUNNY   66  54  65 N7        30.10R
$$

ORZ021-028-191800-
SOUTHWEST OREGON


CITY           SKY/WX    TMP DP  RH WIND       PRES   REMARKS
NORTH BEND     SUNNY     61  61 100 CALM      30.08S
BROOKINGS      SUNNY     73  61  66 S3        29.98S
ROSEBURG       SUNNY     64  56  75 CALM      30.09R
SEXTON SUMMIT  SUNNY     60  53  77 CALM      30.13R
MEDFORD        SUNNY     68  54  60 N6        30.07S
$$

ORZ009-041-191800-
COLUMBIA GORGE


CITY           SKY/WX    TMP DP  RH WIND       PRES   REMARKS
TROUTDALE      SUNNY     68  57  68 CALM      30.09R
THE DALLES     SUNNY     74  54  49 W12       30.04R
$$

ORZ029>031-042>050-061>064-191800-
EASTERN OREGON


CITY           SKY/WX    TMP DP  RH WIND       PRES   REMARKS
REDMOND        SUNNY     64  49  57 S6        30.14S
BEND           SUNNY     63  48  59 S3        30.17S
KLAMATH FALLS  SUNNY     62  48  60 NW6       30.15S
LAKEVIEW       SUNNY     64  46  52 N10       30.17F
HERMISTON      SUNNY     72  52  49 SW10      30.05R
PENDLETON      SUNNY     70  49  47 W14       30.07R
JOHN DAY       MOSUNNY   64  48  56 W7        30.16S
MEACHAM        CLOUDY    59  48  67 CALM      30.14R
LA GRANDE      CLOUDY    66  43  42 E6        30.12R
BAKER CITY     PTSUNNY   63  47  55 W6        30.14R
BURNS          SUNNY     64  46  52 W7        30.16S
ROME             N/A     66  44  45 NE10      30.13S
ONTARIO        SUNNY     74  49  41 NW12      30.09R
$$


USA.gov is the U.S. government's official web portal to all federal, state and local government web resources and services.